• Join FlightAware (Why Join?)
  • Login
  • US Flag 
09:00PM EDT


 

Airport Tracker/Info


-or-


 

Live Flight TrackerFlight Track Log ✈ SWA896 ✈ 24-May-2013 ✈ KLAS - KSMF

Flight Track Log - Related Links

Times and Time Zones

All times are in EDT time to prevent confusion due to time zone crossing. See the SWA896 flight status page for this flight to view local times or setup timezone preferences in your user account.

Time Position Orientation Groundspeed Altitude Reporting Facility
EDT Latitude Longitude Course Direction KTS MPH feet Rate Location/Type
01:53PM 36.0747 -115.1714 266° West 192 221 3,300  Level Los Angeles Center
01:54PM 36.0706 -115.2419 266° West 216 249 5,200 1,800 Climbing Los Angeles Center
01:55PM 36.0486 -115.2653 221° Southwest 229 264 6,100 2,400 Climbing Los Angeles Center
01:55PM 36.0067 -115.2867 202° Southwest 261 300 7,700 2,640 Climbing Los Angeles Center
01:56PM 35.9792 -115.2992 200° South 258 297 8,900 3,000 Climbing Los Angeles Center
01:56PM 35.9386 -115.3408 220° Southwest 280 322 11,100 3,000 Climbing Los Angeles Center
01:57PM 35.9211 -115.3628 225° Southwest 272 313 12,000 3,000 Climbing Los Angeles Center
01:57PM 35.8908 -115.4094 231° Southwest 280 322 13,800 1,980 Climbing Los Angeles Center
01:58PM 35.8861 -115.4656 264° West 286 329 14,100 180 Climbing Los Angeles Center
01:59PM 35.8889 -115.5647 272° West 291 335 14,100 720 Level Los Angeles Center
02:00PM 35.8906 -115.6731 271° West 293 337 15,600 1,980 Climbing Los Angeles Center
02:01PM 35.8928 -115.7747 272° West 296 341 18,300 2,460 Climbing Los Angeles Center
02:02PM 35.8942 -115.8831 271° West 316 364 20,800 2,400 Climbing Los Angeles Center
02:03PM 35.9192 -115.9958 285° West 329 379 23,300 1,560 Climbing Los Angeles Center
02:04PM 35.9897 -116.0769 317° Northwest 365 420 24,100 1,080 Climbing Los Angeles Center
02:05PM 36.0844 -116.1861 317° Northwest 412 474 25,600 1,500 Climbing Los Angeles Center
02:06PM 36.1608 -116.2747 317° Northwest 426 490 27,300 1,680 Climbing Los Angeles Center
02:07PM 36.2667 -116.3978 317° Northwest 436 502 29,200 1,800 Climbing Los Angeles Center
02:08PM 36.3544 -116.4992 317° Northwest 434 499 31,100 1,680 Climbing Los Angeles Center
02:09PM 36.4419 -116.6003 317° Northwest 432 497 32,700 1,380 Climbing Los Angeles Center
02:10PM 36.5414 -116.7175 317° Northwest 432 497 34,000 600 Climbing Los Angeles Center
02:11PM 36.6414 -116.8094 324° Northwest 452 520 34,000  Level Los Angeles Center
02:12PM 36.7486 -116.8872 330° Northwest 450 518 34,000  Level Los Angeles Center
02:13PM 36.8542 -116.9692 328° Northwest 448 516 34,000  Level Los Angeles Center
02:14PM 36.9614 -117.0497 329° Northwest 448 516 34,000  Level Los Angeles Center
02:15PM 37.0689 -117.1328 328° Northwest 452 520 34,000  Level Los Angeles Center
02:16PM 37.1547 -117.2011 328° Northwest 455 524 34,000  Level Oakland Center
02:17PM 37.2594 -117.2881 327° Northwest 451 519 34,000  Level Oakland Center
02:18PM 37.3394 -117.4006 312° West 429 494 34,000  Level Oakland Center
02:19PM 37.4175 -117.5158 310° West 430 495 34,000  Level Oakland Center
02:20PM 37.4939 -117.6317 310° West 429 494 34,000  Level Oakland Center
02:21PM 37.5708 -117.7464 310° West 427 491 34,000  Level Oakland Center
02:22PM 37.6469 -117.8614 310° West 425 489 34,000 -300 Level Oakland Center
02:23PM 37.7225 -117.9764 310° West 424 488 33,400 -780 Descending Oakland Center
02:24PM 37.8142 -118.1161 310° West 427 491 32,500 -720 Descending Oakland Center
02:25PM 37.8914 -118.2331 310° West 431 496 32,000 -300 Descending Oakland Center
02:26PM 37.9681 -118.3519 309° West 433 498 32,000  Level Oakland Center
02:27PM 38.0444 -118.4692 310° West 432 497 32,000  Level Oakland Center
02:28PM 38.1217 -118.5883 310° West 434 499 32,000 -420 Level Oakland Center
02:29PM 38.2058 -118.7197 309° West 435 501 31,200 -780 Descending Oakland Center
02:30PM 38.2842 -118.8389 310° West 437 503 30,500 -600 Descending Oakland Center
02:31PM 38.3614 -118.9606 309° West 440 506 30,000 -300 Descending Oakland Center
02:32PM 38.4392 -119.0831 309° West 443 510 30,000  Level Oakland Center
02:34PM 38.5161 -119.2050 309° West 441 507 30,000 -180 Level Oakland Center
02:35PM 38.5939 -119.3278 309° West 442 509 29,700 -660 Descending Oakland Center
02:36PM 38.6708 -119.4511 309° West 443 510 28,700 -960 Descending Oakland Center
02:37PM 38.7500 -119.5756 309° West 447 514 27,800 -1,080 Descending Oakland Center
02:38PM 38.8406 -119.7194 309° West 435 501 26,500 -1,080 Descending Oakland Center
02:39PM 38.9056 -119.8250 308° West 431 496 25,600 -1,080 Descending Oakland Center
02:40PM 38.9897 -119.9592 309° West 427 491 24,400 -1,020 Descending Oakland Center
02:41PM 39.0617 -120.0753 309° West 419 482 23,500 -1,140 Descending Oakland Center
02:42PM 39.1322 -120.1883 309° West 393 452 22,100 -1,560 Descending Oakland Center
02:43PM 39.1731 -120.3003 295° West 370 426 20,400 -1,620 Descending Oakland Center
02:44PM 39.1444 -120.4114 252° West 328 377 18,800 -1,560 Descending Oakland Center
02:45PM 39.1181 -120.5197 253° West 319 367 17,200 -1,440 Descending Oakland Center
02:46PM 39.0900 -120.6225 251° West 307 353 15,900 -720 Descending Oakland Center
02:47PM 39.0653 -120.7192 252° West 289 333 15,800 -1,200 Descending Oakland Center
02:48PM 39.0356 -120.8358 252° West 287 330 13,500 -2,640 Descending Oakland Center
02:49PM 39.0086 -120.9364 251° West 295 339 10,500 -2,100 Descending Oakland Center
02:50PM 38.9819 -121.0389 252° West 303 349 9,200 -1,440 Descending Oakland Center
02:51PM 38.9589 -121.1322 252° West 284 327 7,600 -1,500 Descending Oakland Center
02:52PM 38.9342 -121.2242 251° West 277 319 6,100 -1,200 Descending Oakland Center
02:53PM 38.9000 -121.3500 251° West 267 307 5,000 -600 Descending Northern Cal TRACON
02:54PM 38.9000 -121.4333 270° West 257 296 4,800 -660 Descending Northern Cal TRACON
02:55PM 38.9000 -121.5333 270° West 247 284 3,700 -960 Descending Northern Cal TRACON
02:56PM 38.8500 -121.6000 226° Southwest 235 270 2,900 -960 Descending Northern Cal TRACON
02:57PM 38.8000 -121.6000 180° South 208 239 1,800 -1,020 Descending Northern Cal TRACON
02:58PM 38.7500 -121.6000 180° South 167 192 1,000 -900 Descending Northern Cal TRACON
02:59PM 38.7167 -121.6000 180° South 151 174 200 -840 Descending Northern Cal TRACON
03:01PM 38.6954 -121.5908 218° Southwest  Level Estimated
03:08PM 38.6954 -121.5908 218° Southwest  Level Estimated
03:09PM 38.6954 -121.5908 218° Southwest  Level Estimated